Погода в Баюновских Ключах

Россия / Алтайский край     53°20′04″N   84°12′01″E
темп.,
°C
ветер,
м/с
пор.,
м/с
влажн.,
%
обл.,
%
осадки,
мм/ч
давл.,
гПа
погр.,
м
10 мая, пн
пн1001:00+7всв511501 0.0 1019659
04:00+5св513635 0.0 1019583
07:00+6всв512719 0.0 1020534
10:00+11всв69485 0.0 1019963
13:00+15всв793251 0.0 10171570
16:00+17всв79268 0.0 10161942
19:00+16всв6934100 0.0 10151786
22:00+11ссв41154100 0.0 1015315
11 мая, вт
вт1101:00+9св41156100 0.0 1014442
04:00+7ссв41065100 0.0 1013340
07:00+7ссв3969100 0.0 1014316
10:00+12ссв344897 0.0 1014897
13:00+16ссв35335 0.0 10131817
16:00+18ссв35295 0.0 10132472
19:00+18ссв35315 0.0 10132535
22:00+12с3950100 0.0 1014181
12 мая, ср
ср1201:00+11ссв512535 0.0 1015419
04:00+9ссв411665 0.0 1016326
07:00+8с38735 0.0 1017270
10:00+15ссв46481 0.0 1017826
13:00+19ссв5630100 0.0 10163382
16:00+19с563070 0.0 10162525
19:00+17ссз473910 0.0 10171797
22:00+12с385992 0.1 1019223
13 мая, чт
чт1301:00+11с126797 0.3 101929
04:00+9ссв117093 0.0 101810
07:00+10юв116786 0.0 101939
10:00+17з014382 0.0 1017707
13:00+18ссв1236100 0.0 10162205
16:00+19всв22339 0.0 10161885
19:00+18в223581 0.0 10152129
22:00+14зюз114880 0.0 101611
14 мая, пт
пт1401:00+11сз246694 0.1 1016115
04:00+10сз2777100 0.1 1015213
07:00+10сз2582100 0.3 1016228
10:00+13сз356861 0.8 1015924
13:00+15сз674548 1.5 10161593
16:00+17ссз473786 0.0 10162402
19:00+15ссз58415 0.0 10181745
22:00+9ссз274871 0.0 1022144